Find WHDW 05-02

NORAD ID: 64957 Int'l Des: 2025-159 Owner: ZXW Country: CN Constellation: xingwang operational
LEOCIRCULARPOLARONEWEB_TYPE

实时位置

正在加载3D地球...

关于 WHDW 05-02

正在加载描述...

即将过境

Passes for default location (London). Set your location on the main map for personalized predictions.

高度历史

Loading altitude history...

两行轨道根数

1 64957U 25159B 26106.22222887 .00000086 00000-0 16590-3 0 9999
2 64957 86.4931 303.4285 0001713 99.6089 260.5239 13.24424923 34921
Epoch: Apr 16, 2026 • Age: 8 hours

当前状态

高度 1190.6 km
速度 7.26 km/s
星下点 -56.15°S, 77.19°E
发射日期 Jul 27, 2025
运行时间 0.7 years
类型 other

技术详情

分类 Payload
质量 700.00 kg
干质量 700.00 kg
总质量 700.00 kg
长度 3.00 m
直径 1.00 m
跨度 10.00 m
形状 Box + 2 Pan
制造商 CAST
平台类型 Xingwang C
阶段状态 In Orbit
所有者/国家 ZXW/CN

Most Searched